Pride Of Kent — MQCJ2 — position and weather

sailwx.info

Track history (hours):
 
Tides and Currents Weather Stations Pressure Air Temp Water Temp Dewpoint Dewpoint Depression Visibility Wind Speed Wind Dir Waves Ship Positions

Pride Of Kent

Operator: P & O Ferries

Last reported at 2017-Mar-25 05:33 UTC. Time now 2017-Mar-25 05:51 UTC.
Position N 50°58' E 001°51'.

Length 180 m; draft 6 m.

Type: Passenger vessel. MMSI: 232009000.

Date/timePositionNaut miles runAvg speedWind from/ knotsBaromVisibWave heightAir tempDewpointWater temp
2017-Mar-25 05:33N 50°58' E 001°51'4 3.6
2017-Mar-25 04:33N 50°58' E 001°45'1615.5
2017-Mar-25 03:33N 51°06' E 001°24'3 2.6
2017-Mar-25 02:26N 51°07' E 001°20'3 3.4
2017-Mar-25 01:33N 51°07' E 001°25'1716.9
2017-Mar-25 00:33N 50°58' E 001°48'2 2.0
2017-Mar-24 23:33N 50°58' E 001°51'1616.1
2017-Mar-24 22:34N 51°05' E 001°28'5 5.0
2017-Mar-24 21:28N 51°07' E 001°20'9 9.4
2017-Mar-24 20:33N 51°03' E 001°32'1313.0
2017-Mar-24 19:34N 50°58' E 001°51'8 7.6
2017-Mar-24 18:33N 50°57' E 001°39'1515.4
2017-Mar-24 17:33N 51°07' E 001°20'1 0.7
2017-Mar-24 16:33N 51°07' E 001°21'1919.0
2017-Mar-24 15:33N 50°58' E 001°48'2 2.0
2017-Mar-24 14:33N 50°58' E 001°51'1615.7
2017-Mar-24 13:33N 51°04' E 001°28'6 5.3
2017-Mar-24 12:28N 51°07' E 001°20'1010.8
2017-Mar-24 11:33N 51°04' E 001°34'1211.8
2017-Mar-24 10:33N 50°58' E 001°51'3 3.3
2017-Mar-24 09:33N 50°58' E 001°46'1716.9
2017-Mar-24 08:34N 51°07' E 001°23'2 2.0
2017-Mar-24 07:33N 51°07' E 001°20'1111.3
2017-Mar-24 06:33N 51°02' E 001°35'1010.5
2017-Mar-24 05:33N 50°58' E 001°51'2 2.0
2017-Mar-24 04:33N 50°58' E 001°48'1716.7
2017-Mar-24 03:34N 51°06' E 001°24'3 2.9
2017-Mar-24 02:29N 51°07' E 001°20'1010.9
2017-Mar-24 01:33N 51°03' E 001°35'1111.4
2017-Mar-24 00:33N 50°58' E 001°51'7 7.4
2017-Mar-23 23:34N 50°58' E 001°39'1512.0
2017-Mar-23 22:18N 51°07' E 001°20'1 1.9
2017-Mar-23 21:33N 51°07' E 001°22'1817.6
2017-Mar-23 20:33N 50°58' E 001°46'3 3.0
2017-Mar-23 19:33N 50°58' E 001°51'1313.3
2017-Mar-23 18:34N 51°02' E 001°31'9 8.3
2017-Mar-23 17:32N 51°07' E 001°20'7 6.8
2017-Mar-23 16:33N 51°05' E 001°30'1514.7
2017-Mar-23 15:32N 50°58' E 001°51'0 0.3
2017-Mar-23 14:33N 50°58' E 001°51'1616.5
2017-Mar-23 13:33N 51°05' E 001°27'5 4.7
2017-Mar-23 12:31N 51°07' E 001°20'1111.5
2017-Mar-23 11:34N 51°04' E 001°37'1110.8
2017-Mar-23 10:33N 50°58' E 001°51'3 3.3
2017-Mar-23 09:33N 50°58' E 001°46'1716.8
2017-Mar-23 08:33N 51°06' E 001°22'2 1.7
2017-Mar-23 07:24N 51°07' E 001°20'1113.5
2017-Mar-23 06:33N 51°02' E 001°36'1010.1
2017-Mar-23 05:33N 50°58' E 001°51'5 4.9
2017-Mar-23 04:34N 50°58' E 001°43'1716.6
2017-Mar-23 03:33N 51°07' E 001°21'1 0.7
2017-Mar-23 02:23N 51°07' E 001°20'1012.6
2017-Mar-23 01:33N 51°03' E 001°35'1111.2
2017-Mar-23 00:33N 50°58' E 001°51'3 3.2
2017-Mar-22 23:33N 50°58' E 001°46'1918.3
2017-Mar-22 22:33N 51°07' E 001°20'1 0.9
2017-Mar-22 21:33N 51°07' E 001°20'1010.2
2017-Mar-22 20:33N 51°03' E 001°34'1111.5
2017-Mar-22 19:34N 50°58' E 001°51'5 5.0
2017-Mar-22 18:34N 50°58' E 001°43'1615.6
2017-Mar-22 17:33N 51°07' E 001°22'2 1.5
2017-Mar-22 16:32N 51°07' E 001°20'0 0.0
2017-Mar-22 15:16N 51°07' E 001°20'0 0.0
2017-Mar-22 14:29N 51°07' E 001°20'6 6.1
2017-Mar-22 13:33N 51°11' E 001°27'6 1.9
2017-Mar-22 10:33N 51°07' E 001°20'0 0.0
2017-Mar-22 09:33N 51°07' E 001°20'0 0.0
2017-Mar-22 08:21N 51°07' E 001°20'0 0.0
2017-Mar-22 07:33N 51°07' E 001°20'0 0.0
2017-Mar-22 06:28N 51°07' E 001°20'0 0.0
2017-Mar-22 05:32N 51°07' E 001°20'0 0.0
2017-Mar-22 04:32N 51°07' E 001°20'0 0.0
2017-Mar-22 03:33N 51°07' E 001°20'0 0.0
2017-Mar-22 02:31N 51°07' E 001°20'0 0.0
2017-Mar-22 01:33N 51°07' E 001°20'0 0.0
2017-Mar-22 00:32N 51°07' E 001°20'0 0.0
2017-Mar-21 23:32N 51°07' E 001°20'1 0.7
2017-Mar-21 22:33N 51°07' E 001°21'9 9.2
2017-Mar-21 21:33N 51°09' E 001°36'1010.4
2017-Mar-21 20:33N 51°02' E 001°48'1212.2
2017-Mar-21 19:34N 51°03' E 002°07'8 8.5
2017-Mar-21 18:34N 51°03' E 002°21'1 0.6
2017-Mar-21 17:33N 51°03' E 002°21'0 0.2
2017-Mar-21 16:33N 51°03' E 002°22'0 0.0
2017-Mar-21 15:34N 51°03' E 002°22'0 0.0
2017-Mar-21 14:33N 51°03' E 002°22'0 0.0
2017-Mar-21 13:34N 51°03' E 002°22'0 0.0
2017-Mar-21 12:33N 51°03' E 002°22'0 0.0
2017-Mar-21 11:33N 51°03' E 002°22'0 0.0
2017-Mar-21 10:33N 51°03' E 002°22'0 0.0
2017-Mar-21 09:33N 51°03' E 002°22'0 0.0
2017-Mar-21 08:32N 51°03' E 002°22'0 0.0
2017-Mar-21 07:32N 51°03' E 002°22'0 0.0
2017-Mar-21 06:33N 51°03' E 002°22'0 0.0
2017-Mar-21 05:33N 51°03' E 002°22'0 0.0
2017-Mar-21 04:33N 51°03' E 002°22'0 0.0
2017-Mar-21 03:33N 51°03' E 002°22'0 0.0
2017-Mar-21 02:33N 51°03' E 002°22'0 0.0
2017-Mar-21 01:33N 51°03' E 002°22'0 0.0
2017-Mar-21 00:33N 51°03' E 002°22'0 0.0
2017-Mar-20 23:33N 51°03' E 002°22'0 0.0
2017-Mar-20 22:33N 51°03' E 002°22'0 0.0
2017-Mar-20 21:33N 51°03' E 002°22'0 0.0
2017-Mar-20 20:33N 51°03' E 002°22'0 0.0
2017-Mar-20 19:33N 51°03' E 002°22'0 0.0
2017-Mar-20 18:33N 51°03' E 002°22'0 0.0
2017-Mar-20 17:33N 51°03' E 002°22'0 0.0
2017-Mar-20 16:33N 51°03' E 002°22'0 0.0
2017-Mar-20 15:33N 51°03' E 002°22'0 0.0
2017-Mar-20 14:33N 51°03' E 002°22'0 0.0
2017-Mar-20 13:34N 51°03' E 002°22'0 0.0
2017-Mar-20 12:34N 51°03' E 002°22'0 0.0
2017-Mar-20 11:34N 51°03' E 002°22'0 0.0
2017-Mar-20 10:33N 51°03' E 002°22'0 0.0
2017-Mar-20 09:33N 51°03' E 002°22'0 0.0
2017-Mar-20 08:34N 51°03' E 002°22'0 0.0
2017-Mar-20 07:34N 51°03' E 002°22'0 0.0
2017-Mar-20 06:32N 51°03' E 002°22'0 0.0
2017-Mar-20 05:33N 51°03' E 002°22'0 0.0
2017-Mar-20 04:33N 51°03' E 002°22'0 0.0
2017-Mar-20 03:33N 51°03' E 002°22'0 0.0
2017-Mar-20 02:33N 51°03' E 002°22'0 0.0
2017-Mar-20 01:34N 51°03' E 002°22'0 0.0
2017-Mar-20 00:33N 51°03' E 002°22'0 0.0
2017-Mar-19 23:33N 51°03' E 002°22'0 0.0
2017-Mar-19 22:34N 51°03' E 002°22'0 0.0
2017-Mar-19 21:33N 51°03' E 002°22'0 0.0
2017-Mar-19 20:33N 51°03' E 002°22'0 0.0
2017-Mar-19 19:33N 51°03' E 002°22'0 0.0
2017-Mar-19 18:33N 51°03' E 002°22'0 0.0
2017-Mar-19 17:33N 51°03' E 002°22'0 0.0
2017-Mar-19 16:34N 51°03' E 002°22'0 0.0
2017-Mar-19 15:33N 51°03' E 002°22'0 0.0
2017-Mar-19 14:34N 51°03' E 002°22'0 0.0
2017-Mar-19 13:33N 51°03' E 002°22'0 0.0
2017-Mar-19 12:34N 51°03' E 002°22'0 0.0
2017-Mar-19 11:34N 51°03' E 002°22'0 0.0
2017-Mar-19 10:33N 51°03' E 002°22'0 0.0
2017-Mar-19 09:34N 51°03' E 002°22'0 0.0
2017-Mar-19 08:33N 51°03' E 002°22'0 0.0
2017-Mar-19 07:33N 51°03' E 002°22'0 0.0
2017-Mar-19 06:33N 51°03' E 002°22'0 0.0
2017-Mar-19 05:33N 51°03' E 002°22'0 0.0
2017-Mar-19 04:33N 51°03' E 002°22'0 0.0
2017-Mar-19 03:33N 51°03' E 002°22'0 0.0
2017-Mar-19 02:34N 51°03' E 002°22'0 0.0
2017-Mar-19 01:33N 51°03' E 002°22'0 0.0
2017-Mar-19 00:33N 51°03' E 002°22'0 0.0
2017-Mar-18 23:33N 51°03' E 002°22'0 0.0
2017-Mar-18 22:33N 51°03' E 002°22'0 0.0
2017-Mar-18 21:33N 51°03' E 002°22'0 0.0
2017-Mar-18 20:34N 51°03' E 002°22'0 0.0
2017-Mar-18 19:33N 51°03' E 002°22'0 0.0
2017-Mar-18 18:34N 51°03' E 002°22'0 0.0
2017-Mar-18 17:33N 51°03' E 002°22'0 0.0
2017-Mar-18 16:33N 51°03' E 002°22'0 0.0
2017-Mar-18 15:32N 51°03' E 002°22'0 0.0
2017-Mar-18 14:34N 51°03' E 002°22'0 0.0
2017-Mar-18 13:33N 51°03' E 002°22'0 0.0
2017-Mar-18 12:34N 51°03' E 002°22'0 0.0
2017-Mar-18 11:34N 51°03' E 002°22'0 0.0
2017-Mar-18 10:33N 51°03' E 002°22'0 0.0
2017-Mar-18 09:33N 51°03' E 002°22'0 0.0
2017-Mar-18 08:31N 51°03' E 002°22'0 0.0
2017-Mar-18 07:32N 51°03' E 002°22'0 0.0
2017-Mar-18 06:33N 51°03' E 002°22'0 0.0
2017-Mar-18 05:30N 51°03' E 002°22'0 0.0
2017-Mar-18 04:32N 51°03' E 002°22'0 0.0
2017-Mar-18 03:32N 51°03' E 002°22'0 0.0
2017-Mar-18 02:33N 51°03' E 002°22'0 0.0
2017-Mar-18 01:30N 51°03' E 002°22'0 0.0
2017-Mar-18 00:32N 51°03' E 002°22'0 0.0
2017-Mar-17 23:33N 51°03' E 002°22'0 0.0
2017-Mar-17 22:33N 51°03' E 002°22'0 0.0
2017-Mar-17 21:33N 51°03' E 002°22'0 0.0
2017-Mar-17 20:32N 51°03' E 002°22'0 0.0
2017-Mar-17 19:33N 51°03' E 002°22'0 0.0
2017-Mar-17 18:34N 51°03' E 002°22'0 0.0
2017-Mar-17 17:33N 51°03' E 002°22'0 0.0
2017-Mar-17 16:33N 51°03' E 002°22'0 0.0
2017-Mar-17 15:33N 51°03' E 002°22'0 0.0
2017-Mar-17 14:34N 51°03' E 002°22'0 0.0
2017-Mar-17 13:33N 51°03' E 002°22'0 0.0
2017-Mar-17 12:34N 51°03' E 002°22'0 0.0
2017-Mar-17 11:33N 51°03' E 002°22'0 0.0
2017-Mar-17 10:34N 51°03' E 002°22'0 0.0
2017-Mar-17 09:33N 51°03' E 002°22'0 0.0
2017-Mar-17 08:33N 51°03' E 002°22'0 0.0
2017-Mar-17 07:33N 51°03' E 002°22'0 0.0
2017-Mar-17 06:33N 51°03' E 002°22'0 0.0
2017-Mar-17 05:33N 51°03' E 002°22'0 0.0
2017-Mar-17 04:34N 51°03' E 002°22'0 0.0
2017-Mar-17 03:33N 51°03' E 002°22'0 0.0
2017-Mar-17 02:33N 51°03' E 002°22'0 0.0
2017-Mar-17 01:34N 51°03' E 002°22'0 0.0
2017-Mar-17 00:33N 51°03' E 002°22'0 0.0
2017-Mar-16 23:33N 51°03' E 002°22'0 0.0
2017-Mar-16 22:33N 51°03' E 002°22'0 0.0
2017-Mar-16 21:33N 51°03' E 002°22'0 0.0
2017-Mar-16 20:33N 51°03' E 002°22'0 0.0
2017-Mar-16 19:33N 51°03' E 002°22'0 0.0
2017-Mar-16 18:33N 51°03' E 002°22'0 0.0
2017-Mar-16 17:33N 51°03' E 002°22'0 0.0
2017-Mar-16 16:34N 51°03' E 002°22'0 0.0
2017-Mar-16 15:33N 51°03' E 002°22'0 0.0
2017-Mar-16 14:32N 51°03' E 002°22'0 0.0
2017-Mar-16 13:33N 51°03' E 002°22'0 0.0
2017-Mar-16 12:34N 51°03' E 002°22'0 0.0
2017-Mar-16 11:33N 51°03' E 002°22'0 0.1
2017-Mar-16 10:33N 51°03' E 002°22'0 0.2
2017-Mar-16 09:32N 51°03' E 002°22'0 0.0
2017-Mar-16 08:34N 51°03' E 002°22'0 0.0
2017-Mar-16 07:33N 51°03' E 002°22'0 0.0
2017-Mar-16 06:33N 51°03' E 002°22'0 0.0
2017-Mar-16 05:33N 51°03' E 002°22'0 0.0
2017-Mar-16 04:33N 51°03' E 002°22'0 0.0
2017-Mar-16 03:34N 51°03' E 002°22'0 0.0
2017-Mar-16 02:33N 51°03' E 002°22'0 0.0
2017-Mar-16 01:33N 51°03' E 002°22'0 0.0
2017-Mar-16 00:33N 51°03' E 002°22'0 0.0
2017-Mar-15 23:33N 51°03' E 002°22'0 0.0
2017-Mar-15 22:33N 51°03' E 002°22'0 0.0
2017-Mar-15 21:33N 51°03' E 002°22'0 0.0
2017-Mar-15 20:33N 51°03' E 002°22'0 0.0
2017-Mar-15 19:33N 51°03' E 002°22'0 0.0
2017-Mar-15 18:34N 51°03' E 002°22'0 0.0
2017-Mar-15 17:34N 51°03' E 002°22'0 0.0
2017-Mar-15 16:33N 51°03' E 002°22'0 0.0
2017-Mar-15 15:33N 51°03' E 002°22'0 0.0
2017-Mar-15 14:33N 51°03' E 002°22'0 0.0
2017-Mar-15 13:33N 51°03' E 002°22'0 0.0
2017-Mar-15 12:34N 51°03' E 002°22'0 0.0
2017-Mar-15 11:33N 51°03' E 002°22'0 0.0
2017-Mar-15 10:33N 51°03' E 002°22'0 0.0
2017-Mar-15 09:33N 51°03' E 002°22'0 0.0
2017-Mar-15 08:34N 51°03' E 002°22'0 0.0
2017-Mar-15 07:33N 51°03' E 002°22'0 0.0
2017-Mar-15 06:33N 51°03' E 002°22'0 0.0
2017-Mar-15 05:34N 51°03' E 002°22'  
Track history (hours):
 
Tides and Currents Weather Stations Pressure Air Temp Water Temp Dewpoint Dewpoint Depression Visibility Wind Speed Wind Dir Waves Ship Positions

Pride Of Kent

Operator: P & O Ferries

Last reported at 2017-Mar-25 05:33 UTC. Time now 2017-Mar-25 05:51 UTC.
Position N 50°58' E 001°51'.

Length 180 m; draft 6 m.

Type: Passenger vessel. MMSI: 232009000.

Date/timePositionNaut miles runAvg speedWind from/ knotsBaromVisibWave heightAir tempDewpointWater temp
2017-Mar-25 05:33N 50°58' E 001°51'4 3.6
2017-Mar-25 04:33N 50°58' E 001°45'1615.5
2017-Mar-25 03:33N 51°06' E 001°24'3 2.6
2017-Mar-25 02:26N 51°07' E 001°20'3 3.4
2017-Mar-25 01:33N 51°07' E 001°25'1716.9
2017-Mar-25 00:33N 50°58' E 001°48'2 2.0
2017-Mar-24 23:33N 50°58' E 001°51'1616.1
2017-Mar-24 22:34N 51°05' E 001°28'5 5.0
2017-Mar-24 21:28N 51°07' E 001°20'9 9.4
2017-Mar-24 20:33N 51°03' E 001°32'1313.0
2017-Mar-24 19:34N 50°58' E 001°51'8 7.6
2017-Mar-24 18:33N 50°57' E 001°39'1515.4
2017-Mar-24 17:33N 51°07' E 001°20'1 0.7
2017-Mar-24 16:33N 51°07' E 001°21'1919.0
2017-Mar-24 15:33N 50°58' E 001°48'2 2.0
2017-Mar-24 14:33N 50°58' E 001°51'1615.7
2017-Mar-24 13:33N 51°04' E 001°28'6 5.3
2017-Mar-24 12:28N 51°07' E 001°20'1010.8
2017-Mar-24 11:33N 51°04' E 001°34'1211.8
2017-Mar-24 10:33N 50°58' E 001°51'3 3.3
2017-Mar-24 09:33N 50°58' E 001°46'1716.9
2017-Mar-24 08:34N 51°07' E 001°23'2 2.0
2017-Mar-24 07:33N 51°07' E 001°20'1111.3
2017-Mar-24 06:33N 51°02' E 001°35'1010.5
2017-Mar-24 05:33N 50°58' E 001°51'2 2.0
2017-Mar-24 04:33N 50°58' E 001°48'1716.7
2017-Mar-24 03:34N 51°06' E 001°24'3 2.9
2017-Mar-24 02:29N 51°07' E 001°20'1010.9
2017-Mar-24 01:33N 51°03' E 001°35'1111.4
2017-Mar-24 00:33N 50°58' E 001°51'7 7.4
2017-Mar-23 23:34N 50°58' E 001°39'1512.0
2017-Mar-23 22:18N 51°07' E 001°20'1 1.9
2017-Mar-23 21:33N 51°07' E 001°22'1817.6
2017-Mar-23 20:33N 50°58' E 001°46'3 3.0
2017-Mar-23 19:33N 50°58' E 001°51'1313.3
2017-Mar-23 18:34N 51°02' E 001°31'9 8.3
2017-Mar-23 17:32N 51°07' E 001°20'7 6.8
2017-Mar-23 16:33N 51°05' E 001°30'1514.7
2017-Mar-23 15:32N 50°58' E 001°51'0 0.3
2017-Mar-23 14:33N 50°58' E 001°51'1616.5
2017-Mar-23 13:33N 51°05' E 001°27'5 4.7
2017-Mar-23 12:31N 51°07' E 001°20'1111.5
2017-Mar-23 11:34N 51°04' E 001°37'1110.8
2017-Mar-23 10:33N 50°58' E 001°51'3 3.3
2017-Mar-23 09:33N 50°58' E 001°46'1716.8
2017-Mar-23 08:33N 51°06' E 001°22'2 1.7
2017-Mar-23 07:24N 51°07' E 001°20'1113.5
2017-Mar-23 06:33N 51°02' E 001°36'1010.1
2017-Mar-23 05:33N 50°58' E 001°51'5 4.9
2017-Mar-23 04:34N 50°58' E 001°43'1716.6
2017-Mar-23 03:33N 51°07' E 001°21'1 0.7
2017-Mar-23 02:23N 51°07' E 001°20'1012.6
2017-Mar-23 01:33N 51°03' E 001°35'1111.2
2017-Mar-23 00:33N 50°58' E 001°51'3 3.2
2017-Mar-22 23:33N 50°58' E 001°46'1918.3
2017-Mar-22 22:33N 51°07' E 001°20'1 0.9
2017-Mar-22 21:33N 51°07' E 001°20'1010.2
2017-Mar-22 20:33N 51°03' E 001°34'1111.5
2017-Mar-22 19:34N 50°58' E 001°51'5 5.0
2017-Mar-22 18:34N 50°58' E 001°43'1615.6
2017-Mar-22 17:33N 51°07' E 001°22'2 1.5
2017-Mar-22 16:32N 51°07' E 001°20'0 0.0
2017-Mar-22 15:16N 51°07' E 001°20'0 0.0
2017-Mar-22 14:29N 51°07' E 001°20'6 6.1
2017-Mar-22 13:33N 51°11' E 001°27'6 1.9
2017-Mar-22 10:33N 51°07' E 001°20'0 0.0
2017-Mar-22 09:33N 51°07' E 001°20'0 0.0
2017-Mar-22 08:21N 51°07' E 001°20'0 0.0
2017-Mar-22 07:33N 51°07' E 001°20'0 0.0
2017-Mar-22 06:28N 51°07' E 001°20'0 0.0
2017-Mar-22 05:32N 51°07' E 001°20'0 0.0
2017-Mar-22 04:32N 51°07' E 001°20'0 0.0
2017-Mar-22 03:33N 51°07' E 001°20'0 0.0
2017-Mar-22 02:31N 51°07' E 001°20'0 0.0
2017-Mar-22 01:33N 51°07' E 001°20'0 0.0
2017-Mar-22 00:32N 51°07' E 001°20'0 0.0
2017-Mar-21 23:32N 51°07' E 001°20'1 0.7
2017-Mar-21 22:33N 51°07' E 001°21'9 9.2
2017-Mar-21 21:33N 51°09' E 001°36'1010.4
2017-Mar-21 20:33N 51°02' E 001°48'1212.2
2017-Mar-21 19:34N 51°03' E 002°07'8 8.5
2017-Mar-21 18:34N 51°03' E 002°21'1 0.6
2017-Mar-21 17:33N 51°03' E 002°21'0 0.2
2017-Mar-21 16:33N 51°03' E 002°22'0 0.0
2017-Mar-21 15:34N 51°03' E 002°22'0 0.0
2017-Mar-21 14:33N 51°03' E 002°22'0 0.0
2017-Mar-21 13:34N 51°03' E 002°22'0 0.0
2017-Mar-21 12:33N 51°03' E 002°22'0 0.0
2017-Mar-21 11:33N 51°03' E 002°22'0 0.0
2017-Mar-21 10:33N 51°03' E 002°22'0 0.0
2017-Mar-21 09:33N 51°03' E 002°22'0 0.0
2017-Mar-21 08:32N 51°03' E 002°22'0 0.0
2017-Mar-21 07:32N 51°03' E 002°22'0 0.0
2017-Mar-21 06:33N 51°03' E 002°22'0 0.0
2017-Mar-21 05:33N 51°03' E 002°22'0 0.0
2017-Mar-21 04:33N 51°03' E 002°22'0 0.0
2017-Mar-21 03:33N 51°03' E 002°22'0 0.0
2017-Mar-21 02:33N 51°03' E 002°22'0 0.0
2017-Mar-21 01:33N 51°03' E 002°22'0 0.0
2017-Mar-21 00:33N 51°03' E 002°22'0 0.0
2017-Mar-20 23:33N 51°03' E 002°22'0 0.0
2017-Mar-20 22:33N 51°03' E 002°22'0 0.0
2017-Mar-20 21:33N 51°03' E 002°22'0 0.0
2017-Mar-20 20:33N 51°03' E 002°22'0 0.0
2017-Mar-20 19:33N 51°03' E 002°22'0 0.0
2017-Mar-20 18:33N 51°03' E 002°22'0 0.0
2017-Mar-20 17:33N 51°03' E 002°22'0 0.0
2017-Mar-20 16:33N 51°03' E 002°22'0 0.0
2017-Mar-20 15:33N 51°03' E 002°22'0 0.0
2017-Mar-20 14:33N 51°03' E 002°22'0 0.0
2017-Mar-20 13:34N 51°03' E 002°22'0 0.0
2017-Mar-20 12:34N 51°03' E 002°22'0 0.0
2017-Mar-20 11:34N 51°03' E 002°22'0 0.0
2017-Mar-20 10:33N 51°03' E 002°22'0 0.0
2017-Mar-20 09:33N 51°03' E 002°22'0 0.0
2017-Mar-20 08:34N 51°03' E 002°22'0 0.0
2017-Mar-20 07:34N 51°03' E 002°22'0 0.0
2017-Mar-20 06:32N 51°03' E 002°22'0 0.0
2017-Mar-20 05:33N 51°03' E 002°22'0 0.0
2017-Mar-20 04:33N 51°03' E 002°22'0 0.0
2017-Mar-20 03:33N 51°03' E 002°22'0 0.0
2017-Mar-20 02:33N 51°03' E 002°22'0 0.0
2017-Mar-20 01:34N 51°03' E 002°22'0 0.0
2017-Mar-20 00:33N 51°03' E 002°22'0 0.0
2017-Mar-19 23:33N 51°03' E 002°22'0 0.0
2017-Mar-19 22:34N 51°03' E 002°22'0 0.0
2017-Mar-19 21:33N 51°03' E 002°22'0 0.0
2017-Mar-19 20:33N 51°03' E 002°22'0 0.0
2017-Mar-19 19:33N 51°03' E 002°22'0 0.0
2017-Mar-19 18:33N 51°03' E 002°22'0 0.0
2017-Mar-19 17:33N 51°03' E 002°22'0 0.0
2017-Mar-19 16:34N 51°03' E 002°22'0 0.0
2017-Mar-19 15:33N 51°03' E 002°22'0 0.0
2017-Mar-19 14:34N 51°03' E 002°22'0 0.0
2017-Mar-19 13:33N 51°03' E 002°22'0 0.0
2017-Mar-19 12:34N 51°03' E 002°22'0 0.0
2017-Mar-19 11:34N 51°03' E 002°22'0 0.0
2017-Mar-19 10:33N 51°03' E 002°22'0 0.0
2017-Mar-19 09:34N 51°03' E 002°22'0 0.0
2017-Mar-19 08:33N 51°03' E 002°22'0 0.0
2017-Mar-19 07:33N 51°03' E 002°22'0 0.0
2017-Mar-19 06:33N 51°03' E 002°22'0 0.0
2017-Mar-19 05:33N 51°03' E 002°22'0 0.0
2017-Mar-19 04:33N 51°03' E 002°22'0 0.0
2017-Mar-19 03:33N 51°03' E 002°22'0 0.0
2017-Mar-19 02:34N 51°03' E 002°22'0 0.0
2017-Mar-19 01:33N 51°03' E 002°22'0 0.0
2017-Mar-19 00:33N 51°03' E 002°22'0 0.0
2017-Mar-18 23:33N 51°03' E 002°22'0 0.0
2017-Mar-18 22:33N 51°03' E 002°22'0 0.0
2017-Mar-18 21:33N 51°03' E 002°22'0 0.0
2017-Mar-18 20:34N 51°03' E 002°22'0 0.0
2017-Mar-18 19:33N 51°03' E 002°22'0 0.0
2017-Mar-18 18:34N 51°03' E 002°22'0 0.0
2017-Mar-18 17:33N 51°03' E 002°22'0 0.0
2017-Mar-18 16:33N 51°03' E 002°22'0 0.0
2017-Mar-18 15:32N 51°03' E 002°22'0 0.0
2017-Mar-18 14:34N 51°03' E 002°22'0 0.0
2017-Mar-18 13:33N 51°03' E 002°22'0 0.0
2017-Mar-18 12:34N 51°03' E 002°22'0 0.0
2017-Mar-18 11:34N 51°03' E 002°22'0 0.0
2017-Mar-18 10:33N 51°03' E 002°22'0 0.0
2017-Mar-18 09:33N 51°03' E 002°22'0 0.0
2017-Mar-18 08:31N 51°03' E 002°22'0 0.0
2017-Mar-18 07:32N 51°03' E 002°22'0 0.0
2017-Mar-18 06:33N 51°03' E 002°22'0 0.0
2017-Mar-18 05:30N 51°03' E 002°22'0 0.0
2017-Mar-18 04:32N 51°03' E 002°22'0 0.0
2017-Mar-18 03:32N 51°03' E 002°22'0 0.0
2017-Mar-18 02:33N 51°03' E 002°22'0 0.0
2017-Mar-18 01:30N 51°03' E 002°22'0 0.0
2017-Mar-18 00:32N 51°03' E 002°22'0 0.0
2017-Mar-17 23:33N 51°03' E 002°22'0 0.0
2017-Mar-17 22:33N 51°03' E 002°22'0 0.0
2017-Mar-17 21:33N 51°03' E 002°22'0 0.0
2017-Mar-17 20:32N 51°03' E 002°22'0 0.0
2017-Mar-17 19:33N 51°03' E 002°22'0 0.0
2017-Mar-17 18:34N 51°03' E 002°22'0 0.0
2017-Mar-17 17:33N 51°03' E 002°22'0 0.0
2017-Mar-17 16:33N 51°03' E 002°22'0 0.0
2017-Mar-17 15:33N 51°03' E 002°22'0 0.0
2017-Mar-17 14:34N 51°03' E 002°22'0 0.0
2017-Mar-17 13:33N 51°03' E 002°22'0 0.0
2017-Mar-17 12:34N 51°03' E 002°22'0 0.0
2017-Mar-17 11:33N 51°03' E 002°22'0 0.0
2017-Mar-17 10:34N 51°03' E 002°22'0 0.0
2017-Mar-17 09:33N 51°03' E 002°22'0 0.0
2017-Mar-17 08:33N 51°03' E 002°22'0 0.0
2017-Mar-17 07:33N 51°03' E 002°22'0 0.0
2017-Mar-17 06:33N 51°03' E 002°22'0 0.0
2017-Mar-17 05:33N 51°03' E 002°22'0 0.0
2017-Mar-17 04:34N 51°03' E 002°22'0 0.0
2017-Mar-17 03:33N 51°03' E 002°22'0 0.0
2017-Mar-17 02:33N 51°03' E 002°22'0 0.0
2017-Mar-17 01:34N 51°03' E 002°22'0 0.0
2017-Mar-17 00:33N 51°03' E 002°22'0 0.0
2017-Mar-16 23:33N 51°03' E 002°22'0 0.0
2017-Mar-16 22:33N 51°03' E 002°22'0 0.0
2017-Mar-16 21:33N 51°03' E 002°22'0 0.0
2017-Mar-16 20:33N 51°03' E 002°22'0 0.0
2017-Mar-16 19:33N 51°03' E 002°22'0 0.0
2017-Mar-16 18:33N 51°03' E 002°22'0 0.0
2017-Mar-16 17:33N 51°03' E 002°22'0 0.0
2017-Mar-16 16:34N 51°03' E 002°22'0 0.0
2017-Mar-16 15:33N 51°03' E 002°22'0 0.0
2017-Mar-16 14:32N 51°03' E 002°22'0 0.0
2017-Mar-16 13:33N 51°03' E 002°22'0 0.0
2017-Mar-16 12:34N 51°03' E 002°22'0 0.0
2017-Mar-16 11:33N 51°03' E 002°22'0 0.1
2017-Mar-16 10:33N 51°03' E 002°22'0 0.2
2017-Mar-16 09:32N 51°03' E 002°22'0 0.0
2017-Mar-16 08:34N 51°03' E 002°22'0 0.0
2017-Mar-16 07:33N 51°03' E 002°22'0 0.0
2017-Mar-16 06:33N 51°03' E 002°22'0 0.0
2017-Mar-16 05:33N 51°03' E 002°22'0 0.0
2017-Mar-16 04:33N 51°03' E 002°22'0 0.0
2017-Mar-16 03:34N 51°03' E 002°22'0 0.0
2017-Mar-16 02:33N 51°03' E 002°22'0 0.0
2017-Mar-16 01:33N 51°03' E 002°22'0 0.0
2017-Mar-16 00:33N 51°03' E 002°22'0 0.0
2017-Mar-15 23:33N 51°03' E 002°22'0 0.0
2017-Mar-15 22:33N 51°03' E 002°22'0 0.0
2017-Mar-15 21:33N 51°03' E 002°22'0 0.0
2017-Mar-15 20:33N 51°03' E 002°22'0 0.0
2017-Mar-15 19:33N 51°03' E 002°22'0 0.0
2017-Mar-15 18:34N 51°03' E 002°22'0 0.0
2017-Mar-15 17:34N 51°03' E 002°22'0 0.0
2017-Mar-15 16:33N 51°03' E 002°22'0 0.0
2017-Mar-15 15:33N 51°03' E 002°22'0 0.0
2017-Mar-15 14:33N 51°03' E 002°22'0 0.0
2017-Mar-15 13:33N 51°03' E 002°22'0 0.0
2017-Mar-15 12:34N 51°03' E 002°22'0 0.0
2017-Mar-15 11:33N 51°03' E 002°22'0 0.0
2017-Mar-15 10:33N 51°03' E 002°22'0 0.0
2017-Mar-15 09:33N 51°03' E 002°22'0 0.0
2017-Mar-15 08:34N 51°03' E 002°22'0 0.0
2017-Mar-15 07:33N 51°03' E 002°22'0 0.0
2017-Mar-15 06:33N 51°03' E 002°22'0 0.0
2017-Mar-15 05:34N 51°03' E 002°22'  

Dump ship's entire track history